Freeport, IL

9:37 PM CST on December 14, 2017 (GMT -0600)
Albertus

Weather History for KFEP - August, 2013

Change the Weather History Date:

Tuesday, August 13, 2013

  Actual Average Record
Temperature  
Mean Temperature 62 °F -  
Max Temperature 72 °F 81 °F 94 °F (1988)
Min Temperature 53 °F 58 °F 46 °F (2004)
Degree Days  
Heating Degree Days 2    
Growing Degree Days 12 (Base 50)    
Moisture  
Dew Point 51 °F    
Average Humidity 68    
Maximum Humidity 92    
Minimum Humidity 40    
Precipitation  
Precipitation 0.00 in - - ()
Sea Level Pressure  
Sea Level Pressure 30.12 in    
Wind  
Wind Speed 6 mph (NNE)    
Max Wind Speed 15 mph    
Max Gust Speed 18 mph    
Visibility 10 miles    
Events      
Averages and records for this station are not official NWS values.
T = Trace of Precipitation, MM = Missing Value Source: NWS Daily Summary

Daily Weather History Graph

Daily Weather History Graph

Search for Another Location

Airport or City:

Trip Planner

Search our weather history database for the weather conditions in past years. The results will help you decide how hot, cold, wet, or windy it might be!

Date:

Astronomy

Aug. 13, 2013 Rise Set
Actual Time 6:03 AM CDT 8:01 PM CDT
Civil Twilight 5:33 AM CDT 8:31 PM CDT
Nautical Twilight 4:56 AM CDT 9:08 PM CDT
Astronomical Twilight 4:15 AM CDT 9:49 PM CDT
Moon 1:07 PM CDT (8/13) 11:27 PM CDT (8/13)
Length of Visible Light 14h 58m
Length of Day
13h 57m
Waxing Crescent, 42% of the Moon is Illuminated
Aug 13
Waxing Crescent
Aug 14
First Quarter
Aug 20
Full
Aug 28
Last Quarter
Sep 5
New

Hourly Weather History & Observations

Time (CDT) Temp. Dew Point Humidity Pressure Visibility Wind Dir Wind Speed Gust Speed Precip Events Conditions
12:15 AM 64.0 °F 59.0 °F 84% 30.01 in 10.0 mi NW 5.8 mph - N/A   Clear
12:35 AM 64.0 °F 59.0 °F 84% 30.01 in 10.0 mi WNW 5.8 mph - N/A   Clear
12:55 AM 62.8 °F 58.1 °F 85% 30.01 in 10.0 mi NW 4.6 mph - N/A   Clear
1:15 AM 61.7 °F 57.4 °F 86% 30.01 in 10.0 mi NW 5.8 mph - N/A   Clear
1:35 AM 61.5 °F 57.6 °F 87% 30.01 in 10.0 mi NNW 3.5 mph - N/A   Clear
1:55 AM 61.7 °F 57.2 °F 85% 30.01 in 10.0 mi North 4.6 mph - N/A   Clear
2:15 AM 61.7 °F 57.6 °F 86% 30.01 in 10.0 mi North 4.6 mph - N/A   Clear
2:35 AM 60.3 °F 56.8 °F 88% 30.02 in 10.0 mi NNE 5.8 mph - N/A   Clear
2:55 AM 59.0 °F 56.3 °F 91% 30.03 in 10.0 mi NNE 5.8 mph - N/A   Clear
3:15 AM 59.0 °F 56.7 °F 92% 30.03 in 10.0 mi NNE 5.8 mph - N/A   Clear
3:35 AM 59.0 °F 56.7 °F 92% 30.04 in 10.0 mi NE 6.9 mph - N/A   Clear
3:55 AM 59.0 °F 56.7 °F 92% 30.04 in 10.0 mi NE 5.8 mph - N/A   Clear
4:15 AM 59.0 °F 56.7 °F 92% 30.04 in 10.0 mi NE 6.9 mph - N/A   Clear
4:35 AM 59.0 °F 56.1 °F 90% 30.05 in 10.0 mi NE 8.1 mph - N/A   Clear
4:55 AM 58.6 °F 53.2 °F 82% 30.06 in 10.0 mi NE 8.1 mph - N/A   Scattered Clouds
5:15 AM 57.0 °F 52.3 °F 84% 30.07 in 10.0 mi NE 5.8 mph - N/A   Mostly Cloudy
5:35 AM 59.0 °F 54.7 °F 86% 30.08 in 10.0 mi NNE 4.6 mph - N/A   Overcast
5:55 AM 59.0 °F 55.0 °F 87% 30.09 in 10.0 mi NE 3.5 mph - N/A   Overcast
6:15 AM 56.5 °F 52.9 °F 88% 30.10 in 10.0 mi Calm Calm - N/A   Mostly Cloudy
6:35 AM 56.5 °F 53.1 °F 88% 30.11 in 10.0 mi Calm Calm - N/A   Clear
6:55 AM 56.5 °F 52.3 °F 86% 30.11 in 10.0 mi NNE 8.1 mph - N/A   Clear
7:15 AM 57.4 °F 51.8 °F 82% 30.12 in 10.0 mi NE 5.8 mph - N/A   Clear
7:35 AM 59.0 °F 51.4 °F 76% 30.11 in 10.0 mi NE 9.2 mph - N/A   Clear
7:55 AM 59.0 °F 50.4 °F 73% 30.12 in 10.0 mi NNE 10.4 mph - N/A   Clear
8:15 AM 59.0 °F 48.6 °F 68% 30.12 in 10.0 mi NE 13.8 mph - N/A   Clear
8:35 AM 59.5 °F 48.9 °F 68% 30.13 in 10.0 mi NE 15.0 mph - N/A   Clear
8:55 AM 61.7 °F 49.6 °F 65% 30.13 in 10.0 mi NNE 12.7 mph 18.4 mph N/A   Clear
9:15 AM 62.2 °F 50.7 °F 66% 30.13 in 10.0 mi NNE 9.2 mph - N/A   Clear
9:35 AM 64.0 °F 50.0 °F 60% 30.13 in 10.0 mi NE 13.8 mph - N/A   Clear
9:55 AM 64.0 °F 49.6 °F 59% 30.14 in 10.0 mi NE 9.2 mph - N/A   Clear
10:15 AM 65.3 °F 49.5 °F 57% 30.15 in 10.0 mi NE 10.4 mph - N/A   Clear
10:35 AM 66.4 °F 48.2 °F 52% 30.16 in 10.0 mi NE 11.5 mph 16.1 mph N/A   Clear
10:55 AM 66.4 °F 47.8 °F 51% 30.16 in 10.0 mi NNE 9.2 mph - N/A   Clear
11:15 AM 66.7 °F 47.8 °F 51% 30.16 in 10.0 mi North 8.1 mph - N/A   Clear
11:35 AM 67.3 °F 46.4 °F 47% 30.17 in 10.0 mi NNE 9.2 mph - N/A   Clear
11:55 AM 67.6 °F 46.2 °F 46% 30.17 in 10.0 mi NNE 12.7 mph 18.4 mph N/A   Clear
12:15 PM 69.1 °F 46.9 °F 45% 30.17 in 10.0 mi NNE 6.9 mph 11.5 mph N/A   Clear
12:35 PM 69.3 °F 46.6 °F 44% 30.18 in 10.0 mi North 9.2 mph - N/A   Clear
12:55 PM 70.2 °F 47.1 °F 44% 30.17 in 10.0 mi NNE 6.9 mph - N/A   Clear
1:15 PM 69.6 °F 45.9 °F 43% 30.17 in 10.0 mi North 6.9 mph - N/A   Clear
1:35 PM 71.8 °F 47.5 °F 42% 30.17 in 10.0 mi NNE 8.1 mph - N/A   Scattered Clouds
1:55 PM 71.6 °F 46.9 °F 41% 30.16 in 10.0 mi NNE 8.1 mph 17.3 mph N/A   Scattered Clouds
2:15 PM 72.1 °F 46.4 °F 40% 30.17 in 10.0 mi NE 10.4 mph - N/A   Scattered Clouds
2:35 PM 68.7 °F 46.4 °F 45% 30.17 in 10.0 mi NE 12.7 mph - N/A   Mostly Cloudy
2:55 PM 70.2 °F 47.1 °F 44% 30.16 in 10.0 mi NE 5.8 mph - N/A   Mostly Cloudy
3:15 PM 69.3 °F 46.0 °F 43% 30.16 in 10.0 mi North 6.9 mph - N/A   Mostly Cloudy
3:35 PM 71.2 °F 46.6 °F 41% 30.16 in 10.0 mi North 6.9 mph 17.3 mph N/A   Scattered Clouds
3:55 PM 71.8 °F 47.5 °F 42% 30.16 in 10.0 mi NE 10.4 mph - N/A   Mostly Cloudy
4:15 PM 69.3 °F 46.0 °F 43% 30.16 in 10.0 mi North 9.2 mph - N/A   Mostly Cloudy
4:35 PM 69.3 °F 45.5 °F 42% 30.16 in 10.0 mi North 6.9 mph 18.4 mph N/A   Scattered Clouds
4:55 PM 71.8 °F 46.2 °F 40% 30.16 in 10.0 mi North 8.1 mph - N/A   Scattered Clouds
5:15 PM 70.3 °F 46.8 °F 43% 30.15 in 10.0 mi NNE 6.9 mph - N/A   Scattered Clouds
5:35 PM 70.7 °F 47.3 °F 43% 30.15 in 10.0 mi NE 10.4 mph - N/A   Mostly Cloudy
5:55 PM 70.3 °F 45.5 °F 41% 30.15 in 10.0 mi NNE 5.8 mph - N/A   Scattered Clouds
6:55 PM 67.5 °F 48.2 °F 50% 30.14 in 10.0 mi North 4.6 mph - N/A   Clear
7:15 PM 66.6 °F 48.7 °F 53% 30.15 in 10.0 mi Calm Calm - N/A   Scattered Clouds
7:35 PM 65.3 °F 48.9 °F 55% 30.14 in 10.0 mi Calm Calm - N/A   Clear
7:55 PM 64.0 °F 50.5 °F 61% 30.14 in 10.0 mi Calm Calm - N/A   Clear
8:15 PM 61.7 °F 50.2 °F 66% 30.15 in 10.0 mi Calm Calm - N/A   Clear
8:35 PM 60.3 °F 50.7 °F 71% 30.15 in 10.0 mi Calm Calm - N/A   Clear
8:55 PM 59.0 °F 51.3 °F 75% 30.15 in 10.0 mi Calm Calm - N/A   Clear
9:15 PM 54.5 °F 50.2 °F 85% 30.16 in 10.0 mi Calm Calm - N/A   Clear
9:35 PM 54.0 °F 50.0 °F 86% 30.17 in 10.0 mi Calm Calm - N/A   Clear
9:55 PM 54.0 °F 50.0 °F 86% 30.17 in 10.0 mi Calm Calm - N/A   Clear
10:15 PM 54.0 °F 50.5 °F 88% 30.17 in 10.0 mi Calm Calm - N/A   Clear
10:35 PM 54.0 °F 50.9 °F 89% 30.17 in 10.0 mi Calm Calm - N/A   Clear
10:55 PM 54.0 °F 50.4 °F 88% 30.17 in 10.0 mi Calm Calm - N/A   Clear
11:15 PM 55.0 °F 50.7 °F 85% 30.17 in 10.0 mi Calm Calm - N/A   Clear
11:35 PM 53.1 °F 50.2 °F 90% 30.18 in 10.0 mi Calm Calm - N/A   Clear
11:55 PM 54.0 °F 50.5 °F 88% 30.19 in 10.0 mi Calm Calm - N/A   Clear